{"data":{"norad_id":58185,"intl_designator":"2023-167L","name":"STARLINK-30793","alt_names":[],"object_type":"PAYLOAD","status":"ACTIVE","operator":null,"country":"US","launch_date":"2023-10-30","launch_site_code":"AFETR","launch_vehicle":null,"mission":null,"orbit_class":"UNKNOWN","rcs_meters":null,"size_class":null,"mass_kg":null,"dimensions":null,"purposes":["comms"],"wikipedia_slug":null,"has_3d_model":false,"image_url":null,"decayed_at":null,"tle_current":{"epoch":"2026-09-20T08:03:16.622784Z","epoch_age_seconds":154683,"freshness":"FRESH","line1":"1 58185U 23167L   26263.33560906 -.00000052  00000+0  76179-5 0  9999","line2":"2 58185  43.0049 124.1385 0000944 254.4029 105.6719 15.27574480160757","mean_motion":15.2757448,"eccentricity":9.44e-5,"inclination_deg":43.0049,"raan_deg":124.1385,"arg_perigee_deg":254.4029,"mean_anomaly_deg":105.6719,"bstar":7.6179e-6,"rev_number":16075,"period_min":94.267089353313,"perigee_km":482.41792742744,"apogee_km":483.71332248303,"semimajor_km":6861.2026249552,"source":"CELESTRAK","updated_at":"2026-09-21T09:00:33.827914Z"}}}